This demonstration page uses our WeatherBlox Daily Observations layout. Learn more.

Left ArrowRight Arrow

Hourly Observations for July 7, 2022

Temp ( °F °C ) Dew Point ( °F °C ) Humidity (%) Winds ( mph kmh ) Pressure ( in mb ) Visibility ( mi km ) Precip ( " mm )
12:53 am 00:53 Mostly Clear 89 31.7 68 20 50 50 S 10 17 29.89 1012 10 16 0.00 0.00
1:53 am 01:53 Mostly Clear 87 30.6 70 21.1 57 57 SSE 12 19 29.88 1012 10 16 0.00 0.00
2:53 am 02:53 Mostly Clear 85 29.4 71 21.7 63 63 S 13 20 29.88 1012 10 16 0.00 0.00
3:53 am 03:53 Mostly Clear 84 28.9 71 21.7 65 65 S 7 11 29.89 1012 10 16 0.00 0.00
4:53 am 04:53 Mostly Clear 84 28.9 70 21.1 63 63 S 10 17 29.90 1013 10 16 0.00 0.00
5:53 am 05:53 Mostly Clear 83 28.3 70 21.1 65 65 S 9 15 29.91 1013 10 16 0.00 0.00
6:53 am 06:53 Mostly Sunny 82 27.8 69 20.6 65 65 VRB 6 9 29.93 1013 10 16 0.00 0.00
7:53 am 07:53 Sunny 83 28.3 69 20.6 63 63 S 7 11 29.94 1014 10 16 0.00 0.00
8:53 am 08:53 Sunny 86 30 69 20.6 57 57 SW 10 17 29.96 1015 10 16 0.00 0.00
9:53 am 09:53 Mostly Sunny 88 31.1 69 20.6 54 54 SSW 8 13 29.96 1015 10 16 0.00 0.00
10:53 am 10:53 Mostly Sunny 91 32.8 68 20 47 47 SSW 7 11 29.96 1015 10 16 0.00 0.00
11:53 am 11:53 Mostly Sunny 95 35 66 18.9 39 39 S 6 9 29.96 1014 10 16 0.00 0.00
12:53 pm 12:53 Mostly Sunny 97 36.1 66 18.9 36 36 SSE 10 17 29.93 1014 10 16 0.00 0.00
1:53 pm 13:53 Mostly Sunny 98 36.7 65 18.3 34 34 S 9 15 29.91 1013 10 16 0.00 0.00
2:53 pm 14:53 Mostly Sunny 100 37.8 64 17.8 31 31 undefined N/A 29.89 1012 10 16 0.00 0.00
3:53 pm 15:53 Partly Cloudy 100 37.8 64 17.8 31 31 SSE 13 20 29.88 1012 10 16 0.00 0.00
4:53 pm 16:53 Partly Cloudy 101 38.3 64 17.8 30 30 SE 10 17 29.87 1011 10 16 0.00 0.00
5:53 pm 17:53 Mostly Sunny 101 38.3 63 17.2 29 29 S 9 15 29.85 1011 10 16 0.00 0.00
6:53 pm 18:53 Mostly Sunny 100 37.8 63 17.2 30 30 S 10 17 29.84 1011 10 16 0.00 0.00
7:53 pm 19:53 Partly Cloudy 99 37.2 64 17.8 32 32 SSE 12 19 29.84 1011 10 16 0.00 0.00
8:53 pm 20:53 Mostly Clear 97 36.1 64 17.8 34 34 S 6 9 29.85 1011 10 16 0.00 0.00
9:53 pm 21:53 Clear 95 35 66 18.9 39 39 SE 9 15 29.88 1012 10 16 0.00 0.00
10:53 pm 22:53 Mostly Clear 94 34.4 65 18.3 38 38 SSE 8 13 29.89 1012 10 16 0.00 0.00
11:53 pm 23:53 Mostly Clear 92 33.3 65 18.3 41 41 SSE 8 13 29.90 1013 10 16 0.00 0.00

Powered by AerisWeather